STARLINK-31576, 59208

Orbit data source: Space-Track

STARLINK-31576, 59208 is a payload satellite owned by SpaceX/Seattle (US) in LEO that was launched on Mon, 11 Mar 2024 UTC via an FALCON 9 launch vehicle from the Air Force Western Test Range (AFWTR). Payload-class satellites include a variety of spacecraft equipped with specific instruments for various scientific and technological missions. These include communications satellites like Starlink; space stations such as the ISS; scientific satellites like the Hubble; Earth observation satellites from companies like Planet Labs, Umbra, and HawkEye 360; GPS; miniature CubeSats for education and research; and military/defense satellites.

Loading next visibility...
Identifier
59208, 2024-046H
Orbit
LEO
Country
Flag of USUS
Related business
Manufacturer
SpaceX/Seattle
Mission
Operational Commercial Communications
Bus & Motor
STARLINK V2M, Unknown motor
Mass
730 kg wet, ~700 kg dry
Launch date (UTC)
2024-03-11 (2 years ago)
Launch vehicle
FALCON 9
Launch site
Air Force Western Test Range (AFWTR)
Object type
Payload
Rocket body
Debris
Shape & HBR
Box + 2 Pan, 17.7 m
Radar Cross Section
33.884 m², Large (>1 m²)

Expand to show TLE details & history
Last TLE update: 3 days ago

TLE from 3 days ago
0 STARLINK-31576
1 59208U 24046H   26170.90930852  .00004708  00000-0  15037-3 0  9990
2 59208  53.1598  38.8491 0001362  88.4015 271.7144 15.34402267128728
Epoch: 2026-06-19T21:49Z
TLE epoch observation values (Epoch: 2026-06-19T21:49:24.256Z)
Latitude
0.00003°
Longitude
163.36653°
Altitude
463.57 km
Speed
7.636 km/s
True Right ascension
02h 35m 23s
True Declination
0° 00' 00"
Sunlit
Object was in daylight at epoch
Visualization orbit readout
Latitude
Unknown
Longitude
Unknown
Altitude
Unknown
Speed
Unknown
Apparent Right ascension
Unknown
Apparent Declination
Unknown
Sunlit
N/A
Visualization observer readout
Local Sidereal Time
21:29:29
Azimuth
Unknown
Elevation
Unknown
Doppler factor
Unknown
Orbital elements
Apogee altitude
463.885 km
Perigee altitude
462.022 km
Semi-major axis
6,841.09 km
Eccentricity
0.00014
Inclination
53.1598°
RAAN
38.8491°
Arg. of periapsis
88.4015°
True anomaly
271.6988°
Mean anomaly
271.7144°
Eccentric anomaly
271.7066°
Mean motion
3.83579 °/min
Orbital period
93.85 mins
BSTAR
0.00015037
Loading maneuver chart data...
Computing Atmospheric mass density...
Loading historical data...
Loading historical data...
Loading historical data...
Loading historical data...
Loading historical data...
Loading historical data...
Loading historical data...

Documentation

Showing up to 5 results
|